QPF
0.01 0.01 0.00 0.00 0.00 0.00 0.00 0.00 0.00 0.00 0.00 0.00 0.00 0.00 0.00 0.00 0.00 0.00 0.00 0.00 0.00 0.00 0.00 0.00 0.00 0.00 0.00 0.00 0.00 0.00 0.00 0.00 0.00 0.00 0.00 0.00 0.00 0.00 0.00 0.00 0.00 0.00 0.00 0.00 0.00 0.00 0.00
0.00 0.01 0.01 0.00 0.00 0.00 0.00 0.00 0.00 0.00 0.00 0.00 0.00 0.00 0.00 0.00 0.00 0.00 0.00 0.00 0.00 0.00 0.00 0.00 0.00 0.00 0.00 0.00 0.00 0.00 0.00 0.00 0.00 0.00 0.00 0.00 0.00 0.00 0.00 0.00 0.01 0.00 0.00 0.00 0.00 0.00 0.00
0.00 0.01 0.00 0.00 0.00 0.00 0.00 0.00 0.00 0.00 0.00 0.00 0.00 0.00 0.00 0.00 0.00 0.00 0.00 0.00 0.00 0.00 0.00 0.00 0.00 0.00 0.01 0.00 0.00 0.00 0.00 0.00 0.00 0.00 0.00 0.00 0.00 0.00 0.00 0.01 0.00 0.01 0.01 0.00 0.00 0.00 0.00
0.00 0.00 0.00 0.00 0.00 0.01 0.01 0.00 0.00 0.00 0.00 0.00 0.00 0.00 0.00 0.00 0.00 0.00 0.00 0.00 0.01 0.01 0.01 0.01 0.00 0.00 0.01 0.00 0.00 0.00 0.00 0.00 0.00 0.00 0.00 0.00 0.00 0.00 0.00 0.02 0.02 0.05 0.06 0.02 0.00 0.00 0.00
0.00 0.00 0.00 0.00 0.01 0.01 0.01 0.01 0.01 0.00 0.00 0.00 0.00 0.00 0.00 0.00 0.00 0.00 0.00 0.01 0.01 0.02 0.02 0.01 0.00 0.00 0.00 0.00 0.00 0.00 0.00 0.00 0.00 0.00 0.00 0.00 0.00 0.01 0.01 0.02 0.03 0.05 0.02 0.00 0.00 0.00 0.00
0.00 0.00 0.00 0.00 0.01 0.01 0.00 0.00 0.00 0.01 0.00 0.00 0.01 0.01 0.00 0.00 0.00 0.00 0.01 0.01 0.02 0.04 0.02 0.01 0.01 0.01 0.00 0.00 0.00 0.00 0.00 0.00 0.00 0.00 0.00 0.00 0.00 0.01 0.01 0.03 0.01 0.01 0.01 0.01 0.00 0.00 0.00
0.00 0.00 0.00 0.00 0.01 0.01 0.01 0.00 0.00 0.00 0.01 0.01 0.01 0.01 0.00 0.00 0.00 0.01 0.00 0.00 0.00 0.00 0.01 0.00 0.00 0.00 0.00 0.00 0.00 0.00 0.00 0.00 0.00 0.00 0.00 0.01 0.02 0.01 0.00 0.00 0.00 0.01 0.04 0.02 0.00 0.00 0.00
0.01 0.02 0.01 0.00 0.00 0.01 0.01 0.01 0.00 0.00 0.00 0.00 0.00 0.00 0.00 0.00 0.01 0.02 0.01 0.00 0.00 0.00 0.00 0.00 0.00 0.00 0.00 0.00 0.00 0.00 0.00 0.00 0.00 0.00 0.00 0.03 0.03 0.00 0.00 0.00 0.00 0.02 0.05 0.03 0.02 0.01 0.00
0.03 0.04 0.03 0.01 0.01 0.01 0.01 0.01 0.01 0.00 0.01 0.01 0.00 0.00 0.00 0.00 0.01 0.02 0.01 0.00 0.00 0.00 0.00 0.00 0.00 0.00 0.00 0.00 0.00 0.00 0.00 0.00 0.00 0.00 0.00 0.01 0.00 0.00 0.00 0.00 0.01 0.02 0.03 0.03 0.03 0.03 0.01
0.03 0.03 0.02 0.02 0.02 0.02 0.02 0.02 0.02 0.01 0.02 0.01 0.00 0.00 0.00 0.00 0.00 0.00 0.01 0.00 0.00 0.00 0.00 0.00 0.00 0.00 0.00 0.00 0.00 0.00 0.00 0.00 0.01 0.00 0.02 0.03 0.00 0.04 0.03 0.01 0.01 0.02 0.01 0.03 0.05 0.04 0.00
0.01 0.01 0.01 0.02 0.03 0.03 0.03 0.03 0.03 0.03 0.03 0.01 0.00 0.00 0.00 0.00 0.01 0.01 0.00 0.00 0.00 0.00 0.00 0.00 0.00 0.00 0.00 0.00 0.00 0.00 0.00 0.03 0.02 0.01 0.04 0.01 0.00 0.01 0.03 0.01 0.00 0.00 0.02 0.03 0.02 0.02 0.02
0.01 0.01 0.01 0.02 0.03 0.04 0.04 0.03 0.04 0.04 0.02 0.01 0.00 0.00 0.00 0.01 0.00 0.01 0.00 0.00 0.00 0.00 0.00 0.00 0.00 0.00 0.01 0.01 0.00 0.00 0.00 0.03 0.03 0.07 0.04 0.02 0.03 0.07 0.04 0.02 0.02 0.02 0.03 0.04 0.04 0.02 0.02
0.03 0.02 0.01 0.01 0.02 0.03 0.03 0.03 0.04 0.05 0.03 0.01 0.00 0.00 0.00 0.00 0.00 0.00 0.00 0.00 0.00 0.00 0.00 0.00 0.00 0.01 0.01 0.02 0.01 0.02 0.02 0.03 0.03 0.02 0.01 0.01 0.01 0.02 0.03 0.04 0.05 0.04 0.04 0.03 0.04 0.02 0.00
0.04 0.03 0.02 0.01 0.01 0.01 0.02 0.03 0.05 0.06 0.04 0.01 0.00 0.00 0.00 0.00 0.01 0.00 0.00 0.00 0.00 0.00 0.00 0.00 0.00 0.00 0.01 0.02 0.01 0.02 0.04 0.02 0.02 0.02 0.01 0.00 0.00 0.00 0.00 0.01 0.03 0.02 0.01 0.00 0.01 0.00 0.00
0.05 0.05 0.03 0.02 0.01 0.02 0.03 0.03 0.04 0.06 0.02 0.02 0.00 0.00 0.00 0.00 0.01 0.00 0.00 0.00 0.00 0.01 0.00 0.00 0.00 0.00 0.00 0.00 0.00 0.01 0.02 0.01 0.00 0.01 0.01 0.01 0.00 0.00 0.00 0.01 0.02 0.01 0.01 0.00 0.01 0.00 0.00
0.08 0.06 0.05 0.04 0.02 0.03 0.03 0.05 0.04 0.05 0.01 0.01 0.00 0.00 0.00 0.00 0.01 0.01 0.00 0.00 0.01 0.01 0.00 0.00 0.01 0.00 0.01 0.00 0.00 0.00 0.01 0.00 0.00 0.00 0.00 0.00 0.01 0.00 0.01 0.02 0.02 0.01 0.01 0.01 0.01 0.00 0.01
0.07 0.06 0.05 0.05 0.03 0.02 0.02 0.04 0.05 0.05 0.03 0.01 0.00 0.00 0.00 0.00 0.02 0.01 0.00 0.00 0.00 0.00 0.00 0.00 0.00 0.00 0.00 0.00 0.00 0.00 0.00 0.00 0.00 0.00 0.00 0.01 0.00 0.00 0.01 0.02 0.01 0.01 0.02 0.01 0.00 0.00 0.01
0.05 0.04 0.04 0.06 0.03 0.01 0.01 0.02 0.05 0.07 0.03 0.01 0.00 0.00 0.00 0.00 0.01 0.00 0.00 0.00 0.01 0.01 0.01 0.00 0.00 0.00 0.00 0.00 0.00 0.00 0.00 0.00 0.00 0.00 0.00 0.00 0.00 0.00 0.00 0.00 0.00 0.00 0.00 0.00 0.01 0.01 0.01
0.03 0.03 0.05 0.05 0.04 0.01 0.01 0.02 0.04 0.05 0.01 0.00 0.00 0.01 0.01 0.00 0.00 0.00 0.00 0.00 0.00 0.00 0.01 0.01 0.00 0.00 0.00 0.00 0.00 0.00 0.00 0.00 0.00 0.00 0.01 0.01 0.00 0.00 0.00 0.00 0.01 0.01 0.00 0.00 0.00 0.00 0.01
0.02 0.04 0.05 0.05 0.03 0.01 0.01 0.01 0.03 0.03 0.00 0.00 0.00 0.02 0.01 0.01 0.00 0.00 0.00 0.00 0.00 0.00 0.00 0.00 0.00 0.00 0.00 0.00 0.00 0.00 0.00 0.00 0.00 0.00 0.00 0.01 0.00 0.00 0.00 0.00 0.00 0.00 0.00 0.00 0.00 0.00 0.00
0.02 0.04 0.05 0.03 0.02 0.02 0.01 0.01 0.02 0.03 0.00 0.00 0.00 0.01 0.01 0.00 0.00 0.00 0.01 0.00 0.00 0.00 0.00 0.00 0.00 0.00 0.00 0.00 0.00 0.00 0.00 0.00 0.00 0.00 0.00 0.00 0.00 0.00 0.00 0.00 0.00 0.00 0.00 0.00 0.00 0.00 0.00
0.01 0.02 0.03 0.03 0.02 0.02 0.01 0.01 0.01 0.02 0.00 0.00 0.00 0.00 0.01 0.01 0.00 0.00 0.00 0.00 0.00 0.00 0.01 0.00 0.00 0.01 0.00 0.00 0.00 0.00 0.00 0.00 0.00 0.00 0.00 0.00 0.00 0.00 0.00 0.00 0.00 0.00 0.00 0.00 0.00 0.00 0.00
0.01 0.01 0.02 0.03 0.01 0.01 0.01 0.00 0.00 0.01 0.00 0.00 0.00 0.00 0.00 0.00 0.01 0.01 0.00 0.00 0.00 0.00 0.00 0.00 0.00 0.02 0.01 0.00 0.00 0.00 0.00 0.00 0.00 0.00 0.00 0.00 0.00 0.00 0.00 0.00 0.00 0.00 0.00 0.00 0.00 0.00 0.00
0.01 0.02 0.02 0.03 0.02 0.01 0.00 0.01 0.00 0.01 0.00 0.00 0.00 0.00 0.00 0.00 0.00 0.00 0.00 0.01 0.01 0.00 0.00 0.00 0.00 0.01 0.02 0.01 0.00 0.00 0.00 0.00 0.00 0.01 0.00 0.00 0.00 0.00 0.00 0.00 0.00 0.00 0.00 0.00 0.00 0.00 0.00
0.00 0.01 0.03 0.04 0.02 0.01 0.01 0.01 0.01 0.00 0.00 0.00 0.00 0.00 0.00 0.00 0.00 0.00 0.00 0.00 0.01 0.00 0.00 0.00 0.00 0.00 0.00 0.00 0.02 0.03 0.00 0.00 0.00 0.00 0.00 0.00 0.00 0.00 0.00 0.00 0.00 0.00 0.00 0.00 0.00 0.00 0.00
0.00 0.01 0.03 0.03 0.02 0.01 0.00 0.01 0.00 0.00 0.01 0.00 0.00 0.00 0.00 0.00 0.00 0.00 0.00 0.00 0.01 0.00 0.00 0.00 0.00 0.00 0.00 0.00 0.01 0.00 0.00 0.00 0.00 0.00 0.00 0.00 0.00 0.00 0.00 0.00 0.00 0.00 0.00 0.00 0.00 0.00 0.00
0.00 0.00 0.02 0.03 0.02 0.01 0.00 0.01 0.01 0.00 0.01 0.00 0.00 0.00 0.00 0.00 0.00 0.00 0.00 0.00 0.00 0.00 0.00 0.00 0.00 0.00 0.00 0.00 0.01 0.01 0.01 0.00 0.00 0.00 0.00 0.00 0.00 0.00 0.00 0.00 0.00 0.00 0.00 0.00 0.00 0.00 0.00
0.00 0.00 0.01 0.02 0.02 0.02 0.00 0.01 0.00 0.00 0.00 0.00 0.00 0.00 0.00 0.00 0.00 0.00 0.00 0.00 0.00 0.00 0.00 0.00 0.00 0.00 0.00 0.00 0.00 0.00 0.00 0.00 0.00 0.00 0.00 0.00 0.00 0.00 0.00 0.00 0.00 0.00 0.00 0.00 0.00 0.00 0.00
0.00 0.00 0.01 0.02 0.02 0.02 0.00 0.00 0.00 0.00 0.00 0.00 0.00 0.00 0.00 0.00 0.00 0.00 0.00 0.00 0.00 0.00 0.00 0.00 0.00 0.00 0.00 0.00 0.00 0.00 0.00 0.00 0.00 0.00 0.00 0.00 0.00 0.00 0.00 0.00 0.00 0.00 0.00 0.00 0.00 0.00 0.00
MSLP
1014.19 1013.85 1013.61 1013.52 1013.50 1013.32 1013.24 1013.27 1013.38 1013.52 1013.78 1013.98 1014.08 1014.08 1014.08 1014.15 1014.31 1014.32 1014.27 1014.22 1014.13 1014.33 1014.31 1014.23 1014.15 1014.12 1014.07 1013.39 1012.07 1012.06 1012.10 1012.03 1011.95 1012.36 1012.44 1012.36 1012.14 1011.90 1011.16 1010.42 1010.16 1009.17 1008.75 1008.34 1007.75 1007.37 1006.87
1013.82 1013.53 1013.26 1013.02 1013.00 1013.03 1012.88 1012.84 1012.96 1013.02 1013.18 1013.54 1013.74 1013.86 1013.94 1013.95 1014.14 1014.16 1014.16 1014.09 1014.20 1014.34 1014.29 1014.25 1014.17 1014.16 1013.87 1012.53 1011.14 1011.34 1011.76 1011.82 1011.83 1011.79 1011.99 1012.06 1011.74 1011.49 1011.11 1010.61 1010.03 1009.26 1008.96 1008.31 1007.61 1007.02 1006.78
1013.26 1013.05 1012.85 1012.61 1012.54 1012.51 1012.45 1012.46 1012.45 1012.56 1012.66 1012.99 1013.33 1013.51 1013.74 1013.81 1013.89 1013.93 1013.84 1013.82 1013.99 1014.22 1014.31 1014.31 1014.12 1014.07 1013.34 1011.83 1010.96 1011.06 1011.12 1011.57 1011.82 1011.92 1011.72 1011.43 1011.71 1011.74 1011.12 1011.05 1010.29 1009.58 1009.46 1008.55 1007.48 1006.84 1006.40
1012.66 1012.50 1012.27 1012.15 1012.02 1012.00 1011.94 1011.93 1011.95 1012.09 1012.25 1012.41 1012.83 1013.14 1013.32 1013.55 1013.53 1013.68 1013.62 1013.59 1013.72 1013.93 1014.23 1014.27 1014.22 1013.89 1012.43 1011.38 1011.44 1011.33 1011.41 1011.65 1011.62 1011.73 1011.86 1011.78 1011.77 1011.81 1011.76 1011.47 1011.16 1010.35 1009.72 1008.82 1006.73 1006.49 1006.16
1011.93 1011.79 1011.69 1011.58 1011.45 1011.46 1011.37 1011.42 1011.51 1011.57 1011.73 1012.03 1012.25 1012.60 1012.95 1013.19 1013.28 1013.43 1013.56 1013.52 1013.59 1013.66 1014.02 1014.18 1014.21 1013.71 1012.00 1010.97 1011.05 1010.98 1011.30 1011.51 1011.40 1011.41 1011.62 1011.92 1012.17 1012.21 1012.11 1012.12 1012.03 1010.58 1009.01 1007.83 1007.48 1006.41 1006.04
1011.39 1011.08 1011.08 1010.97 1010.93 1010.86 1010.83 1010.85 1010.91 1011.01 1011.20 1011.43 1011.71 1012.04 1012.55 1012.84 1013.03 1013.23 1013.46 1013.57 1013.49 1013.56 1013.87 1013.89 1013.61 1013.78 1011.65 1010.45 1010.54 1010.87 1011.03 1011.30 1011.55 1011.64 1011.77 1011.96 1012.23 1012.18 1011.99 1011.72 1009.93 1009.26 1008.99 1007.60 1006.75 1006.22 1005.71
1011.17 1010.54 1010.31 1010.30 1010.30 1010.26 1010.24 1010.26 1010.34 1010.49 1010.63 1010.91 1011.23 1011.42 1012.07 1012.55 1012.75 1013.08 1013.48 1013.68 1013.92 1013.91 1013.46 1012.36 1012.00 1011.09 1010.20 1010.02 1010.44 1010.46 1010.68 1011.12 1011.70 1011.94 1011.85 1011.71 1012.04 1010.63 1010.41 1010.51 1010.35 1009.92 1008.93 1007.93 1006.60 1006.15 1005.53
1011.14 1010.44 1009.65 1009.60 1009.52 1009.59 1009.57 1009.65 1009.82 1009.99 1010.14 1010.38 1010.79 1011.04 1011.62 1012.16 1012.44 1012.80 1013.15 1013.17 1012.96 1013.39 1012.81 1012.20 1011.53 1011.15 1010.17 1010.60 1010.27 1010.34 1010.54 1011.14 1011.41 1011.41 1011.73 1011.78 1010.61 1009.40 1010.60 1010.64 1010.53 1009.89 1009.13 1007.98 1006.87 1005.62 1005.41
1011.13 1010.31 1009.61 1008.81 1008.81 1008.75 1008.79 1008.87 1009.12 1009.38 1009.61 1009.89 1010.32 1010.70 1011.38 1011.77 1012.23 1012.75 1012.76 1012.71 1012.90 1013.13 1012.94 1011.55 1011.00 1010.49 1010.24 1010.57 1010.02 1009.68 1010.30 1010.50 1010.61 1010.97 1011.01 1010.78 1008.53 1010.47 1010.56 1010.27 1009.95 1009.11 1008.87 1008.09 1007.02 1005.94 1004.96
1011.02 1010.29 1009.78 1009.03 1008.15 1008.15 1008.07 1008.19 1008.39 1008.69 1009.05 1009.48 1009.87 1010.41 1011.09 1011.67 1012.47 1011.93 1012.29 1012.27 1012.85 1013.35 1012.81 1011.00 1010.55 1009.56 1009.94 1010.64 1010.25 1009.75 1009.47 1010.11 1010.30 1010.06 1010.81 1010.58 1009.83 1009.83 1009.69 1009.57 1009.51 1008.57 1007.95 1008.37 1007.61 1006.85 1005.41
1010.95 1010.04 1009.28 1008.87 1008.38 1008.16 1007.59 1007.42 1007.61 1007.93 1008.44 1009.02 1009.51 1010.10 1010.64 1010.99 1010.91 1011.54 1012.40 1012.57 1013.06 1013.65 1012.47 1010.01 1009.82 1009.52 1009.45 1010.16 1009.88 1009.23 1009.06 1009.30 1009.38 1009.73 1010.23 1009.49 1009.17 1009.24 1009.20 1008.74 1009.05 1007.92 1008.49 1007.96 1007.25 1006.26 1005.78
1010.55 1009.82 1009.06 1008.52 1008.28 1007.68 1007.19 1006.74 1006.82 1007.14 1007.68 1008.37 1009.06 1009.58 1010.34 1011.15 1011.30 1011.88 1012.39 1012.83 1013.22 1013.83 1010.91 1009.44 1009.61 1009.75 1009.84 1010.05 1009.83 1009.14 1008.84 1009.16 1009.39 1009.78 1009.67 1009.43 1009.37 1009.07 1009.11 1008.86 1009.26 1008.83 1008.66 1008.40 1007.64 1007.10 1005.55
1010.33 1009.38 1008.64 1007.88 1007.67 1007.56 1007.14 1006.26 1006.14 1006.35 1006.89 1007.67 1008.44 1009.00 1009.81 1009.81 1010.36 1011.52 1012.41 1013.00 1013.36 1011.96 1009.52 1009.45 1009.35 1009.41 1009.50 1009.56 1009.67 1009.55 1008.88 1008.93 1009.26 1009.74 1009.67 1010.08 1009.11 1009.11 1009.55 1009.38 1009.12 1008.86 1008.82 1008.79 1006.87 1005.36 1003.05
1009.89 1008.91 1008.08 1007.28 1007.21 1006.82 1006.40 1005.65 1005.42 1005.53 1006.21 1006.95 1007.72 1008.50 1009.24 1009.50 1010.11 1011.11 1012.04 1012.81 1011.71 1008.89 1008.78 1009.00 1009.16 1009.28 1009.17 1009.15 1008.99 1009.12 1008.65 1008.76 1009.23 1009.46 1009.61 1009.32 1008.32 1008.14 1008.42 1008.84 1007.71 1007.76 1008.11 1006.69 1005.66 1004.48 1001.82
1009.65 1008.59 1007.71 1006.93 1006.66 1006.54 1005.75 1004.72 1004.80 1004.98 1005.53 1006.36 1007.21 1008.06 1008.85 1009.25 1009.80 1010.73 1011.59 1011.31 1009.32 1008.37 1008.29 1008.60 1008.79 1008.61 1008.49 1008.49 1008.49 1008.47 1007.99 1008.07 1008.00 1008.59 1009.15 1008.73 1007.63 1006.69 1006.88 1007.73 1007.55 1007.55 1007.76 1006.08 1005.32 1001.89 1001.74
1009.37 1008.29 1007.27 1006.54 1006.22 1005.98 1005.61 1004.77 1004.26 1004.39 1004.91 1005.81 1006.64 1007.42 1007.90 1008.48 1009.53 1010.39 1010.96 1009.58 1008.56 1007.90 1008.01 1008.10 1007.64 1007.36 1006.97 1007.30 1007.50 1007.09 1006.88 1006.19 1006.58 1007.20 1008.26 1008.36 1007.74 1006.16 1006.35 1007.07 1006.66 1006.41 1005.72 1006.44 1004.24 1001.34 1000.67
1009.04 1008.01 1007.09 1006.27 1005.15 1005.30 1005.30 1004.55 1003.74 1003.43 1004.28 1005.23 1006.40 1007.12 1006.60 1007.93 1009.32 1009.73 1009.09 1008.49 1007.86 1007.68 1007.67 1007.49 1006.07 1005.28 1005.01 1005.60 1005.60 1005.30 1005.28 1004.80 1004.74 1005.43 1007.34 1008.80 1009.31 1006.82 1006.03 1005.02 1004.73 1004.71 1004.57 1004.19 1002.14 999.79 999.32
1008.63 1007.69 1006.70 1005.83 1004.94 1004.86 1004.73 1003.87 1003.15 1002.34 1003.69 1004.96 1005.80 1006.38 1006.20 1007.48 1008.35 1008.06 1007.83 1007.51 1007.57 1006.90 1006.50 1006.19 1005.51 1004.11 1003.18 1003.70 1004.02 1004.27 1004.13 1003.88 1003.60 1004.71 1006.77 1008.10 1008.07 1006.56 1004.69 1003.56 1003.76 1003.52 1002.84 1001.87 1000.52 999.97 999.27
1008.41 1007.46 1006.72 1005.77 1005.05 1004.51 1003.90 1003.56 1002.40 1002.26 1003.24 1004.33 1005.07 1005.59 1006.35 1006.57 1006.77 1006.94 1007.13 1007.00 1007.04 1006.36 1005.69 1005.23 1003.68 1002.21 1001.89 1001.87 1002.73 1003.02 1003.06 1002.58 1003.13 1004.65 1005.53 1006.65 1006.71 1005.48 1004.24 1003.55 1002.65 1002.08 1001.54 1000.63 1000.23 999.57 999.82
1008.29 1007.36 1006.51 1005.43 1004.55 1003.87 1003.67 1002.78 1001.14 1001.79 1002.48 1003.36 1004.51 1004.97 1005.78 1006.17 1005.74 1005.88 1006.26 1006.16 1006.16 1005.75 1005.25 1004.44 1002.85 1001.73 1001.66 1001.42 1001.53 1001.95 1001.67 1001.82 1002.41 1003.20 1004.35 1005.15 1004.50 1003.56 1001.82 1000.28 1000.19 1001.19 1000.82 1000.15 1000.36 1000.05 999.70
1008.13 1007.03 1006.21 1005.30 1004.60 1003.81 1003.07 1002.39 1001.36 1001.52 1002.15 1003.06 1003.68 1003.67 1003.88 1004.58 1005.08 1005.16 1005.25 1005.22 1005.06 1004.93 1003.91 1003.24 1002.17 1001.33 1001.28 1001.21 1001.17 1000.71 1001.46 1001.21 1001.97 1002.79 1004.09 1005.41 1002.66 1001.52 999.93 999.34 999.97 1000.24 1000.50 1000.43 1000.23 1000.04 1000.05
1007.95 1007.13 1006.44 1005.51 1004.66 1004.26 1003.21 1002.71 1001.55 1001.08 1002.11 1002.76 1002.92 1003.11 1003.15 1003.23 1003.52 1004.23 1004.48 1004.11 1004.06 1004.20 1003.94 1002.54 1001.86 1001.09 1001.02 1000.69 1000.55 1000.21 1000.24 1000.76 1001.38 1002.34 1003.05 1003.47 1002.33 1000.68 1000.00 999.80 999.81 1000.01 1000.05 1000.01 1000.01 1000.17 1000.10
1007.98 1007.10 1006.30 1005.30 1004.73 1004.25 1003.29 1002.46 1001.83 1001.04 1001.65 1002.16 1002.55 1002.58 1002.55 1002.16 1002.48 1003.05 1002.83 1002.92 1002.94 1003.54 1003.29 1002.62 1002.13 1001.41 1000.69 999.85 1000.04 999.62 999.88 1000.32 1000.80 1001.38 1002.28 1002.80 1002.29 1001.01 1000.76 1000.06 999.83 999.88 999.46 999.64 999.98 1000.15 1000.09
1007.84 1006.94 1006.08 1005.42 1004.59 1003.87 1003.34 1002.69 1001.99 1001.23 1001.42 1001.61 1002.27 1002.60 1002.87 1002.37 1001.73 1001.31 1001.34 1001.27 1001.88 1002.31 1002.45 1001.99 1001.55 1001.45 1000.60 999.68 999.51 999.97 1000.43 1000.84 1001.25 1001.71 1001.73 1002.30 1002.46 1002.10 1001.45 1000.66 1000.37 999.75 999.23 999.05 999.35 999.63 999.90
1007.54 1006.71 1005.84 1004.93 1004.18 1003.90 1003.41 1002.33 1002.05 1001.33 1001.12 1001.67 1002.13 1002.54 1002.63 1002.14 1001.40 1000.79 1000.55 1000.74 1001.53 1001.97 1001.65 1001.78 1001.30 1001.23 1000.82 1000.52 1000.45 1000.73 1001.82 1001.98 1002.49 1002.66 1002.47 1002.35 1002.58 1002.66 1002.40 1001.77 1000.72 999.71 999.63 999.44 999.28 999.47 999.63
1007.07 1006.43 1005.73 1004.67 1003.81 1003.27 1002.83 1002.33 1001.57 1001.36 1001.00 1001.64 1002.09 1002.22 1002.66 1002.45 1001.43 1001.00 1000.71 1001.19 1001.81 1001.68 1001.78 1001.64 1002.04 1001.88 1001.71 1001.93 1001.14 1001.35 1001.64 1002.34 1003.05 1003.25 1002.89 1002.70 1002.86 1003.52 1003.03 1002.49 1001.39 1000.56 1000.04 999.68 999.35 1000.29 1000.28
1007.07 1006.35 1005.78 1005.07 1004.28 1003.47 1002.89 1002.43 1001.94 1001.18 1000.71 1001.43 1001.83 1002.08 1002.46 1002.36 1001.34 1000.90 1001.01 1001.43 1001.78 1001.72 1001.69 1001.71 1002.00 1002.24 1002.10 1001.89 1001.18 1001.12 1001.42 1001.86 1002.51 1002.88 1003.15 1003.24 1003.58 1003.89 1003.76 1003.07 1001.77 1000.80 1000.56 1000.28 1000.70 1001.71 1001.05
1006.52 1005.83 1005.28 1004.65 1003.94 1003.29 1002.93 1002.38 1001.88 1001.48 1000.69 1001.24 1001.70 1001.95 1002.11 1002.09 1001.24 1000.96 1001.03 1001.59 1001.79 1002.02 1001.69 1001.54 1001.88 1002.00 1002.10 1001.70 1001.11 1000.91 1000.54 1000.90 1001.46 1002.08 1002.34 1002.68 1003.09 1003.35 1003.75 1003.37 1002.40 1000.98 1001.25 1001.46 1001.70 1001.63 1001.73
1006.23 1005.83 1005.21 1004.68 1003.91 1003.21 1002.54 1002.17 1001.50 1001.04 1000.55 1001.10 1001.62 1001.92 1002.13 1002.34 1001.60 1001.20 1001.06 1001.35 1001.63 1001.88 1001.99 1001.50 1000.96 1000.50 1000.69 1000.89 1001.00 1000.84 1000.33 1000.04 1000.26 1001.52 1001.90 1002.05 1001.71 1001.93 1002.30 1001.89 1001.40 1001.24 1001.41 1001.61 1001.83 1002.33 1002.77
Thickness
5592 5595 5598 5600 5601 5604 5605 5605 5604 5605 5601 5598 5597 5597 5596 5595 5594 5593 5593 5592 5592 5590 5590 5589 5589 5589 5590 5591 5604 5610 5612 5615 5618 5615 5612 5613 5613 5615 5618 5633 5637 5644 5656 5667 5679 5682 5688
5588 5590 5593 5596 5597 5597 5600 5601 5600 5600 5600 5596 5594 5592 5590 5589 5588 5587 5586 5586 5583 5581 5582 5581 5581 5581 5582 5586 5607 5606 5605 5605 5606 5607 5605 5606 5608 5614 5616 5622 5624 5644 5647 5657 5671 5678 5682
5583 5586 5588 5590 5592 5593 5594 5595 5596 5596 5596 5593 5590 5588 5585 5582 5582 5581 5582 5580 5577 5574 5574 5573 5572 5572 5576 5588 5598 5598 5598 5595 5594 5593 5593 5602 5600 5597 5609 5606 5623 5633 5621 5642 5658 5671 5674
5578 5579 5583 5584 5585 5587 5588 5590 5592 5591 5590 5589 5586 5583 5581 5578 5577 5576 5576 5573 5571 5567 5565 5563 5562 5562 5571 5584 5583 5585 5584 5580 5583 5583 5582 5586 5587 5587 5588 5598 5601 5609 5615 5611 5659 5666 5672
5574 5575 5576 5578 5580 5580 5581 5583 5585 5585 5585 5584 5582 5580 5576 5573 5571 5570 5567 5565 5563 5560 5556 5553 5552 5553 5561 5577 5574 5574 5573 5568 5570 5572 5572 5570 5568 5567 5573 5571 5573 5597 5606 5620 5632 5661 5664
5568 5569 5569 5570 5570 5573 5575 5576 5578 5579 5579 5578 5577 5575 5571 5568 5565 5563 5560 5556 5555 5551 5549 5546 5546 5539 5557 5565 5566 5563 5563 5559 5554 5553 5551 5550 5548 5550 5560 5563 5578 5595 5598 5621 5628 5650 5659
5554 5559 5560 5561 5562 5563 5565 5568 5569 5571 5572 5572 5572 5570 5566 5562 5560 5556 5552 5547 5544 5538 5540 5550 5550 5556 5561 5562 5558 5553 5551 5545 5539 5536 5531 5541 5532 5551 5567 5572 5583 5591 5603 5610 5634 5646 5649
5537 5542 5547 5548 5550 5552 5555 5557 5560 5563 5564 5565 5564 5563 5560 5556 5554 5550 5546 5542 5542 5533 5536 5540 5547 5546 5552 5546 5543 5540 5538 5528 5526 5524 5526 5522 5531 5568 5561 5562 5564 5576 5585 5598 5626 5647 5645
5517 5521 5527 5533 5535 5540 5545 5548 5550 5554 5556 5558 5557 5556 5552 5551 5547 5543 5541 5538 5531 5524 5521 5534 5539 5540 5538 5531 5533 5532 5525 5522 5521 5517 5518 5516 5561 5542 5542 5550 5554 5572 5578 5597 5614 5640 5647
5487 5495 5501 5510 5519 5527 5534 5539 5542 5546 5548 5549 5550 5549 5545 5543 5538 5542 5536 5532 5523 5513 5509 5533 5526 5534 5526 5513 5511 5520 5521 5513 5510 5515 5509 5507 5533 5531 5537 5541 5554 5562 5596 5597 5602 5613 5614
5457 5466 5476 5485 5495 5505 5518 5528 5534 5538 5541 5541 5543 5542 5539 5539 5542 5538 5529 5521 5513 5502 5518 5533 5523 5522 5519 5504 5509 5513 5513 5506 5505 5506 5502 5507 5519 5522 5524 5543 5556 5572 5586 5593 5599 5606 5617
5431 5437 5449 5461 5473 5490 5501 5515 5524 5532 5535 5536 5537 5537 5533 5529 5530 5526 5520 5511 5504 5496 5515 5527 5516 5506 5503 5496 5496 5500 5502 5500 5499 5493 5497 5502 5510 5513 5517 5532 5537 5572 5572 5582 5592 5597 5599
5407 5416 5428 5446 5462 5478 5487 5502 5515 5525 5531 5532 5532 5532 5529 5531 5530 5519 5511 5502 5498 5512 5532 5519 5511 5506 5501 5493 5485 5481 5490 5490 5484 5473 5476 5475 5497 5505 5499 5508 5530 5550 5560 5557 5579 5579 5600
5389 5400 5414 5434 5451 5468 5481 5498 5512 5521 5525 5528 5529 5528 5525 5525 5523 5515 5506 5496 5507 5544 5531 5512 5501 5493 5488 5485 5480 5477 5487 5484 5484 5482 5478 5486 5503 5507 5511 5506 5538 5549 5561 5573 5589 5590 5618
5377 5389 5405 5425 5441 5456 5474 5495 5505 5515 5520 5523 5523 5523 5521 5518 5518 5512 5503 5502 5530 5535 5527 5508 5494 5490 5483 5478 5479 5480 5489 5477 5495 5493 5476 5500 5506 5529 5531 5531 5543 5546 5543 5572 5591 5642 5624
5369 5382 5401 5419 5435 5452 5467 5483 5499 5511 5516 5517 5519 5520 5522 5516 5512 5506 5501 5515 5522 5528 5513 5503 5507 5502 5494 5483 5485 5492 5496 5510 5504 5503 5497 5493 5515 5536 5538 5536 5551 5562 5580 5568 5598 5620 5618
5364 5379 5396 5416 5440 5451 5461 5478 5498 5514 5514 5513 5512 5514 5526 5515 5507 5506 5512 5515 5524 5523 5514 5507 5522 5522 5518 5501 5501 5507 5511 5520 5522 5521 5501 5489 5494 5530 5538 5555 5562 5571 5576 5591 5613 5639 5632
5364 5379 5397 5418 5440 5448 5460 5478 5497 5508 5509 5508 5510 5515 5522 5513 5513 5517 5517 5523 5518 5523 5523 5521 5521 5528 5533 5524 5514 5514 5514 5522 5535 5530 5513 5507 5514 5539 5556 5574 5580 5588 5599 5609 5628 5626 5639
5362 5377 5393 5411 5426 5445 5461 5473 5496 5507 5507 5507 5512 5517 5511 5515 5521 5519 5519 5521 5516 5524 5529 5527 5538 5550 5550 5546 5528 5528 5529 5543 5541 5527 5530 5526 5531 5554 5557 5567 5579 5588 5605 5625 5630 5641 5629
5359 5375 5391 5411 5430 5447 5460 5476 5500 5506 5508 5510 5509 5517 5512 5510 5522 5528 5521 5523 5519 5524 5525 5533 5545 5555 5549 5548 5547 5536 5546 5552 5550 5551 5546 5544 5558 5557 5580 5601 5607 5595 5607 5624 5628 5625 5636
5362 5379 5394 5411 5427 5445 5461 5476 5494 5502 5505 5506 5509 5523 5527 5521 5518 5521 5527 5527 5526 5525 5538 5543 5552 5557 5553 5546 5548 5555 5549 5558 5556 5555 5544 5535 5563 5579 5611 5618 5614 5613 5613 5620 5624 5636 5631
5361 5376 5391 5408 5422 5438 5456 5471 5489 5495 5497 5503 5511 5520 5527 5534 5532 5527 5524 5534 5530 5530 5531 5550 5552 5560 5556 5553 5555 5557 5566 5564 5560 5562 5561 5563 5570 5592 5601 5613 5616 5614 5621 5625 5629 5631 5634
5356 5371 5390 5405 5421 5434 5452 5469 5482 5493 5499 5504 5510 5519 5526 5540 5537 5530 5536 5538 5542 5532 5534 5543 5547 5553 5556 5566 5568 5576 5578 5578 5577 5573 5567 5567 5574 5591 5588 5612 5614 5607 5623 5625 5626 5630 5636
5353 5371 5389 5403 5419 5434 5449 5463 5473 5488 5496 5505 5508 5513 5516 5525 5540 5545 5547 5551 5546 5541 5538 5547 5553 5550 5562 5573 5578 5574 5572 5571 5574 5576 5582 5573 5577 5585 5586 5603 5583 5617 5628 5635 5633 5635 5638
5355 5371 5387 5404 5419 5431 5445 5461 5467 5486 5495 5499 5504 5507 5513 5525 5537 5545 5551 5551 5543 5537 5543 5544 5553 5555 5557 5562 5561 5559 5555 5560 5560 5562 5567 5582 5580 5577 5576 5583 5604 5620 5622 5627 5627 5630 5643
5356 5369 5384 5401 5418 5431 5446 5455 5471 5482 5492 5496 5499 5505 5506 5514 5528 5539 5544 5540 5534 5534 5533 5539 5538 5542 5548 5551 5558 5552 5552 5557 5553 5557 5566 5577 5578 5571 5566 5573 5583 5605 5617 5626 5635 5610 5628
5349 5365 5379 5394 5410 5427 5441 5455 5466 5481 5491 5494 5499 5502 5504 5511 5527 5535 5538 5536 5533 5532 5535 5534 5535 5538 5542 5551 5562 5557 5560 5566 5560 5562 5562 5566 5565 5563 5566 5571 5584 5610 5611 5620 5606 5608 5620
5350 5365 5379 5396 5409 5425 5438 5451 5462 5474 5488 5492 5497 5500 5505 5512 5525 5530 5533 5527 5526 5528 5541 5543 5542 5541 5542 5551 5561 5563 5574 5576 5570 5570 5571 5571 5570 5571 5564 5567 5573 5607 5604 5604 5604 5612 5617
5348 5360 5376 5391 5406 5422 5437 5449 5464 5475 5486 5490 5495 5497 5500 5503 5516 5521 5527 5527 5526 5526 5531 5539 5552 5561 5561 5559 5561 5567 5573 5583 5588 5569 5576 5574 5585 5581 5581 5590 5601 5605 5602 5605 5607 5604 5606